Weather History for Lordsburg, NM

Change the Weather History Date:

Wednesday, November 21, 2012

  Actual Average Record
Temperature  
Mean Temperature 60 °F -  
Max Temperature 75 °F 64 °F 68 °F (2013)
Min Temperature 46 °F 26 °F 42 °F (2013)
Degree Days  
Heating Degree Days 4    
Growing Degree Days 10 (Base 50)    
Moisture  
Dew Point 34 °F    
Average Humidity 37    
Maximum Humidity 57    
Minimum Humidity 25    
Precipitation  
Precipitation 0.00 in - - ()
Sea Level Pressure  
Sea Level Pressure 30.14 in    
Wind  
Wind Speed 7 mph ()    
Max Wind Speed 20 mph    
Max Gust Speed 24 mph    
Visibility 10.0 miles    
Events      
Averages and records for this station are not official NWS values.
T = Trace of Precipitation, MM = Missing Value Source: Averaged Metar Reports

Daily Weather History Graph

Daily Weather History Graph

Search for Another Location

Airport:

Trip Planner

Search our weather history database for the weather conditions in past years. The results will help you decide how hot, cold, wet, or windy it might be!

Date:

Astronomy

Nov. 21, 2012 Rise Set
Actual Time 6:49 AM MST 5:11 PM MST
Civil Twilight 6:23 AM MST 5:37 PM MST
Nautical Twilight 5:53 AM MST 6:07 PM MST
Astronomical Twilight 5:24 AM MST 6:37 PM MST
Moon 1:10 PM MST 12:33 AM MST
Length of Visible Light 11h 14m
Length of Day
10h 21m
Waxing Gibbous, 62% of the Moon is Illuminated
Nov 21
Waxing Gibbous
Nov 28
Full
Dec 6
Last Quarter
Dec 13
New
Dec 19
First Quarter

Hourly Weather History & Observations

Time (MST) Temp. Windchill Dew Point Humidity Pressure Visibility Wind Dir Wind Speed Gust Speed Precip Events Conditions
12:15 AM 53.6 °F - 32.0 °F 44% 30.18 in 10.0 mi SSW 5.8 mph - N/A   Clear
12:35 AM 55.4 °F - 32.0 °F 41% 30.18 in 10.0 mi SSW 4.6 mph - N/A   Clear
12:55 AM 53.6 °F - 32.0 °F 44% 30.17 in 10.0 mi South 4.6 mph - N/A   Clear
1:15 AM 55.4 °F - 32.0 °F 41% 30.17 in 10.0 mi South 6.9 mph - N/A   Clear
1:35 AM 55.4 °F - 32.0 °F 41% 30.16 in 10.0 mi South 5.8 mph - N/A   Clear
1:55 AM 55.4 °F - 32.0 °F 41% 30.16 in 10.0 mi SSW 3.5 mph - N/A   Clear
2:15 AM 55.4 °F - 32.0 °F 41% 30.16 in 10.0 mi South 3.5 mph - N/A   Clear
2:35 AM 55.4 °F - 32.0 °F 41% 30.16 in 10.0 mi South 6.9 mph - N/A   Clear
2:55 AM 55.4 °F - 32.0 °F 41% 30.15 in 10.0 mi South 6.9 mph - N/A   Scattered Clouds
3:15 AM 57.2 °F - 32.0 °F 38% 30.15 in 10.0 mi SSE 8.1 mph - N/A   Mostly Cloudy
3:35 AM 57.2 °F - 32.0 °F 38% 30.15 in 10.0 mi SSE 9.2 mph - N/A   Mostly Cloudy
3:55 AM 55.4 °F - 32.0 °F 41% 30.15 in 10.0 mi SSE 9.2 mph - N/A   Mostly Cloudy
4:15 AM 55.4 °F - 32.0 °F 41% 30.15 in 10.0 mi South 6.9 mph - N/A   Scattered Clouds
4:35 AM 57.2 °F - 32.0 °F 38% 30.15 in 10.0 mi South 5.8 mph - N/A   Mostly Cloudy
4:55 AM 57.2 °F - 32.0 °F 38% 30.15 in 10.0 mi SSE 10.4 mph - N/A   Overcast
5:15 AM 59.0 °F - 32.0 °F 36% 30.15 in 10.0 mi South 4.6 mph - N/A   Overcast
5:35 AM 57.2 °F - 32.0 °F 38% 30.16 in 10.0 mi South 6.9 mph - N/A   Overcast
5:55 AM 57.2 °F - 32.0 °F 38% 30.15 in 10.0 mi SSE 8.1 mph - N/A   Mostly Cloudy
6:15 AM 57.2 °F - 32.0 °F 38% 30.15 in 10.0 mi SSE 10.4 mph - N/A   Overcast
6:35 AM 57.2 °F - 32.0 °F 38% 30.15 in 10.0 mi SE 10.4 mph - N/A   Overcast
6:55 AM 59.0 °F - 32.0 °F 36% 30.16 in 10.0 mi SSE 11.5 mph - N/A   Overcast
7:15 AM 59.0 °F - 32.0 °F 36% 30.16 in 10.0 mi SSE 16.1 mph - N/A   Mostly Cloudy
7:35 AM 57.2 °F - 32.0 °F 38% 30.17 in 10.0 mi SSE 11.5 mph - N/A   Scattered Clouds
7:55 AM 57.2 °F - 32.0 °F 38% 30.18 in 10.0 mi SSE 10.4 mph - N/A   Scattered Clouds
8:15 AM 59.0 °F - 32.0 °F 36% 30.18 in 10.0 mi SSE 10.4 mph - N/A   Mostly Cloudy
8:35 AM 60.8 °F - 32.0 °F 34% 30.19 in 10.0 mi SSE 11.5 mph - N/A   Overcast
8:55 AM 60.8 °F - 32.0 °F 34% 30.20 in 10.0 mi SSE 13.8 mph - N/A   Mostly Cloudy
9:15 AM 60.8 °F - 32.0 °F 34% 30.20 in 10.0 mi SSE 12.7 mph 19.6 mph N/A   Clear
9:35 AM 62.6 °F - 32.0 °F 32% 30.21 in 10.0 mi SSE 13.8 mph - N/A   Mostly Cloudy
9:55 AM 64.4 °F - 32.0 °F 30% 30.21 in 10.0 mi SE 19.6 mph 23.0 mph N/A   Overcast
10:15 AM 64.4 °F - 33.8 °F 32% 30.21 in 10.0 mi ESE 17.3 mph 23.0 mph N/A   Overcast
10:35 AM 64.4 °F - 33.8 °F 32% 30.20 in 10.0 mi SE 15.0 mph 24.2 mph N/A   Mostly Cloudy
10:55 AM 64.4 °F - 33.8 °F 32% 30.19 in 10.0 mi ESE 15.0 mph 19.6 mph N/A   Overcast
11:15 AM 64.4 °F - 33.8 °F 32% 30.18 in 10.0 mi SE 17.3 mph 20.7 mph N/A   Overcast
11:35 AM 68.0 °F - 35.6 °F 30% 30.17 in 10.0 mi ESE 13.8 mph 18.4 mph N/A   Scattered Clouds
11:55 AM 69.8 °F - 35.6 °F 28% 30.16 in 10.0 mi SE 10.4 mph 17.3 mph N/A   Scattered Clouds
12:15 PM 71.6 °F - 35.6 °F 27% 30.14 in 10.0 mi SE 10.4 mph 18.4 mph N/A   Scattered Clouds
12:35 PM 73.4 °F - 37.4 °F 27% 30.13 in 10.0 mi SE 12.7 mph 19.6 mph N/A   Clear
12:55 PM 73.4 °F - 37.4 °F 27% 30.13 in 10.0 mi South 15.0 mph 19.6 mph N/A   Clear
1:15 PM 73.4 °F - 37.4 °F 27% 30.12 in 10.0 mi SSE 9.2 mph 16.1 mph N/A   Scattered Clouds
1:35 PM 73.4 °F - 37.4 °F 27% 30.11 in 10.0 mi SSE 12.7 mph 17.3 mph N/A   Scattered Clouds
1:55 PM 73.4 °F - 37.4 °F 27% 30.10 in 10.0 mi SSE 8.1 mph - N/A   Scattered Clouds
2:15 PM 75.2 °F - 37.4 °F 25% 30.08 in 10.0 mi SE 11.5 mph - N/A   Mostly Cloudy
2:35 PM 73.4 °F - 37.4 °F 27% 30.08 in 10.0 mi SSE 6.9 mph - N/A   Scattered Clouds
2:55 PM 75.2 °F - 37.4 °F 25% 30.08 in 10.0 mi SSE 6.9 mph - N/A   Clear
3:15 PM 73.4 °F - 37.4 °F 27% 30.08 in 10.0 mi SSE 5.8 mph - N/A   Clear
3:35 PM 75.2 °F - 37.4 °F 25% 30.08 in 10.0 mi SE 4.6 mph - N/A   Clear
3:55 PM 73.4 °F - 37.4 °F 27% 30.08 in 10.0 mi SSE 4.6 mph - N/A   Mostly Cloudy
4:15 PM 73.4 °F - 37.4 °F 27% 30.08 in 10.0 mi ESE 4.6 mph - N/A   Overcast
4:35 PM 71.6 °F - 35.6 °F 27% 30.08 in 10.0 mi Calm Calm - N/A   Mostly Cloudy
4:55 PM 71.6 °F - 35.6 °F 27% 30.08 in 10.0 mi Calm Calm - N/A   Scattered Clouds
5:15 PM 69.8 °F - 35.6 °F 28% 30.08 in 10.0 mi Calm Calm - N/A   Clear
5:35 PM 68.0 °F - 35.6 °F 30% 30.08 in 10.0 mi Calm Calm - N/A   Clear
5:55 PM 60.8 °F - 33.8 °F 36% 30.09 in 10.0 mi West 3.5 mph - N/A   Clear
6:15 PM 60.8 °F - 33.8 °F 36% 30.10 in 10.0 mi Calm Calm - N/A   Clear
6:35 PM 60.8 °F - 33.8 °F 36% 30.10 in 10.0 mi Calm Calm - N/A   Clear
6:55 PM 57.2 °F - 32.0 °F 38% 30.10 in 10.0 mi Calm Calm - N/A   Clear
7:15 PM 57.2 °F - 33.8 °F 41% 30.11 in 10.0 mi Calm Calm - N/A   Scattered Clouds
7:35 PM 55.4 °F - 32.0 °F 41% 30.11 in 10.0 mi Calm Calm - N/A   Clear
7:55 PM 55.4 °F - 33.8 °F 44% 30.11 in 10.0 mi South 4.6 mph - N/A   Clear
8:15 PM 59.0 °F - 33.8 °F 39% 30.11 in 10.0 mi SW 4.6 mph - N/A   Clear
8:35 PM 57.2 °F - 33.8 °F 41% 30.11 in 10.0 mi South 6.9 mph - N/A   Clear
8:55 PM 57.2 °F - 35.6 °F 44% 30.12 in 10.0 mi South 8.1 mph - N/A   Clear
9:15 PM 55.4 °F - 35.6 °F 47% 30.12 in 10.0 mi South 6.9 mph - N/A   Clear
9:35 PM 57.2 °F - 35.6 °F 44% 30.12 in 10.0 mi South 6.9 mph - N/A   Clear
9:55 PM 55.4 °F - 33.8 °F 44% 30.12 in 10.0 mi South 3.5 mph - N/A   Clear
10:15 PM 50.0 °F - 32.0 °F 50% 30.12 in 10.0 mi Calm Calm - N/A   Clear
10:35 PM 48.2 °F - 32.0 °F 54% 30.12 in 10.0 mi Calm Calm - N/A   Clear
10:55 PM 48.2 °F - 32.0 °F 54% 30.12 in 10.0 mi SE 4.6 mph - N/A   Clear
11:15 PM 48.2 °F - 32.0 °F 54% 30.11 in 10.0 mi SSE 4.6 mph - N/A   Clear
11:35 PM 46.4 °F - 32.0 °F 57% 30.12 in 10.0 mi Calm Calm - N/A   Scattered Clouds
11:55 PM 46.4 °F 45.2 °F 32.0 °F 57% 30.12 in 10.0 mi SE 3.5 mph - N/A   Scattered Clouds